This is the latest recevied weather packets stored in our database for station/object KC1BRV. If no packets are shown the sender has not sent any weather packets the latest 1 day(s).
| Time | Temp. | Humidity | Pressure | Rain* | Wind** | Luminosity | Snow |
|---|---|---|---|---|---|---|---|
| 1778068643 | 15° C | 83% | 1012.6 hPa | 0 mm | - | 115 W/m² | - |
| 1778067736 | 14.44° C | 85% | 1012.9 hPa | 0 mm | - | 84 W/m² | - |
| 1778067434 | 14.44° C | 86% | 1012.9 hPa | 0 mm | - | 65 W/m² | - |
| 1778065315 | 13.89° C | 89% | 1012.9 hPa | 0 mm | - | 61 W/m² | - |
| 1778064708 | 13.89° C | 89% | 1012.9 hPa | 0 mm | - | 24 W/m² | - |
| 1778062893 | 13.89° C | 90% | 1012.6 hPa | 0 mm | - | 27 W/m² | - |
| 1778062286 | 13.33° C | 90% | 1012.6 hPa | 0 mm | - | 22 W/m² | - |
| 1778061985 | 13.33° C | 90% | 1012.8 hPa | 0 mm | - | 20 W/m² | - |
| 1778061381 | 13.33° C | 90% | 1012.5 hPa | 0 mm | - | 7 W/m² | - |
| 1778060775 | 13.89° C | 89% | 1012.3 hPa | 0 mm | - | 4 W/m² | - |
| 1778059262 | 13.89° C | 89% | 1012.6 hPa | 0 mm | - | 0 W/m² | - |
| 1778058355 | 13.89° C | 88% | 1012.7 hPa | 0 mm | - | 0 W/m² | - |
| 1778058051 | 13.89° C | 88% | 1012.5 hPa | 0 mm | - | 0 W/m² | - |
| 1778057748 | 13.89° C | 87% | 1012.6 hPa | 0 mm | - | 0 W/m² | - |
| 1778056837 | 13.89° C | 86% | 1012.8 hPa | 0 mm | - | 0 W/m² | - |
| 1778056535 | 13.89° C | 86% | 1012.9 hPa | 0 mm | - | 0 W/m² | - |
| 1778055929 | 14.44° C | 86% | 1012.9 hPa | 0 mm | - | 0 W/m² | - |
| 1778055323 | 14.44° C | 86% | 1012.9 hPa | 0 mm | - | 0 W/m² | - |
| 1778055020 | 14.44° C | 85% | 1013 hPa | 0 mm | - | 0 W/m² | - |
| 1778054415 | 14.44° C | 85% | 1012.9 hPa | 0 mm | - | 0 W/m² | - |
| 1778053506 | 14.44° C | 84% | 1013.1 hPa | 0 mm | - | 0 W/m² | - |
| 1778052901 | 14.44° C | 85% | 1013 hPa | 0 mm | - | 0 W/m² | - |
| 1778052598 | 14.44° C | 84% | 1012.9 hPa | 0 mm | - | 0 W/m² | - |
| 1778052295 | 14.44° C | 84% | 1012.9 hPa | 0 mm | - | 0 W/m² | - |
| 1778051993 | 15° C | 84% | 1012.9 hPa | 0 mm | - | 0 W/m² | - |
* Rain latest hour (hover to see other rain measurements)
** Current wind speed in m/s (hover to see current wind gust speed)